Regional Weather Roundup
Issued by NWS

Home | Current Version | Previous Version | Graphics & Text | Print | Product List | Glossary On
Versions: 1 2 3 4 5 6 7 8 9 10 11 12 13 14 15 16 17 18 19 20 21 22 23 24 25 26 27 28 29 30 31 32 33 34 35 36 37 38 39 40 41 42 43 44 45 46 47 48 49 50
000
ASUS45 KSLC 221510
RWRUT

UTAH REGIONAL WEATHER ROUNDUP
NATIONAL WEATHER SERVICE SALT LAKE CITY UT
900 AM MDT MON SEP 22 2014

UTZ001>011-023>025-221600-

NORTHERN UTAH

CITY           SKY/WX    TMP DP  RH WIND       PRES   REMARKS
HILL AFB       PTSUNNY   61  55  80 SE6       30.19R
LOGAN          FOG       54  54 100 CALM      30.18R VSB 1/2
OGDEN          SUNNY     59  56  89 S6        30.17R
PROVO AIRPORT  PTSUNNY   61  52  72 SE6       30.21R
SALT LAKE CITY MOSUNNY   64  54  69 S7        30.16R
VERNAL         CLOUDY    56  53  90 CALM      30.25R
WENDOVER       SUNNY     57  52  82 E3        30.16S
HEBER CITY     CLOUDY    52  52 100 CALM      30.24R FOG
WEST JORDAN    SUNNY     63  55  77 SE7       30.18R

$$

UTZ012>022-026-027-221600-

SOUTHERN UTAH

CITY           SKY/WX    TMP DP  RH WIND       PRES   REMARKS
BRYCE CANYON   SUNNY     50  47  89 W5        30.37S
CEDAR CITY     SUNNY     56  53  90 W3        30.24S
MILFORD        MOSUNNY   56  53  90 S7        30.20S
MOAB/CYNLANDS  SUNNY     64  57  78 SE7       30.20R
PRICE          MOSUNNY   59  53  80 E3        30.26R
ST GEORGE      SUNNY     66  55  68 S3        30.13S
KANAB            N/A     59  55  88 NE3       30.27R

$$

REGIONAL REPORTS     COLORADO/ARIZONA

CITY           SKY/WX    TMP DP  RH WIND       PRES   REMARKS
CRAIG, CO      HVY RAIN  53  51  93 SW13      30.33R FOG
GRAND JUNCTION CLOUDY    64  57  78 CALM      30.23R
RIFLE          HVY RAIN  58  55  90 NW5       30.27R FOG
MONTROSE       CLOUDY    59  58  96 CALM      30.30R FOG
CORTEZ         MOSUNNY   62  58  86 W3        30.32R
PAGE, AZ       SUNNY     70  56  61 CALM      30.19R
GRAND CANYON   SUNNY     54  45  71 CALM      30.35R
KINGMAN        SUNNY     72  44  36 CALM      30.12R
FLAGSTAFF      MOSUNNY   60  49  66 S3        30.37R

$$

REGIONAL REPORTS    NEVADA/IDAHO/WYOMING

CITY           SKY/WX    TMP DP  RH WIND       PRES   REMARKS
LAS VEGAS, NV  SUNNY     77  51  40 S6        30.01R
ELY            SUNNY     50  46  86 CALM      30.26R
ELKO           SUNNY     50  43  77 E5        30.19R
POCATELLO, ID  PTSUNNY   58  57  97 NW5       30.15R
BURLEY         MOSUNNY   58  52  80 S10       30.12R
EVANSTON, WY   MOSUNNY   50  48  93 S6        30.28R
ROCK SPRINGS   FOG       48  48 100 CALM      30.27R VSB<1/4

$$



USA.gov is the U.S. government's official web portal to all federal, state and local government web resources and services.